Time,TemperatureF,DewpointF,PressureIn,WindDirection,WindDirectionDegrees,WindSpeedMPH,WindSpeedGustMPH,Humidity,HourlyPrecipIn,Conditions,Clouds,dailyrainin,SoftwareType,DateUTC
2013-07-25 00:03:00,64.6,57.2,30.04,East,90,0.0,-999.0,77,-99.99,,,0.00,Acu-Link.com,2013-07-25 05:03:00,
2013-07-25 00:18:00,64.4,57.0,30.04,East,90,0.0,-999.0,77,-99.99,,,0.00,Acu-Link.com,2013-07-25 05:18:00,
2013-07-25 00:33:00,63.5,56.5,30.04,West,270,0.0,-999.0,78,-99.99,,,0.00,Acu-Link.com,2013-07-25 05:33:00,
2013-07-25 00:48:00,63.0,57.1,30.04,WSW,247,0.0,-999.0,81,-99.99,,,0.00,Acu-Link.com,2013-07-25 05:48:00,
2013-07-25 01:04:00,62.2,56.6,30.04,SW,225,0.0,-999.0,82,-99.99,,,0.00,Acu-Link.com,2013-07-25 06:04:00,
2013-07-25 01:19:00,62.1,56.9,30.04,ENE,67,0.0,-999.0,83,-99.99,,,0.00,Acu-Link.com,2013-07-25 06:19:00,
2013-07-25 01:34:00,61.7,56.8,30.04,NW,315,0.0,-999.0,84,-99.99,,,0.00,Acu-Link.com,2013-07-25 06:34:00,
2013-07-25 01:49:00,61.2,56.7,30.04,NW,315,0.0,-999.0,85,-99.99,,,0.00,Acu-Link.com,2013-07-25 06:49:00,
2013-07-25 02:15:00,61.0,56.5,30.05,NNW,337,0.0,-999.0,85,-99.99,,,0.00,Acu-Link.com,2013-07-25 07:15:00,
2013-07-25 02:30:00,60.4,56.2,30.06,NNW,337,0.0,-999.0,86,-99.99,,,0.00,Acu-Link.com,2013-07-25 07:30:00,
2013-07-25 02:45:00,59.9,57.0,30.06,NNW,337,0.0,-999.0,90,-99.99,,,0.00,Acu-Link.com,2013-07-25 07:45:00,
2013-07-25 03:00:00,59.7,56.8,30.06,NNW,337,0.0,-999.0,90,-99.99,,,0.00,Acu-Link.com,2013-07-25 08:00:00,
2013-07-25 03:31:00,59.2,56.0,30.05,NNW,337,0.0,-999.0,89,-99.99,,,0.00,Acu-Link.com,2013-07-25 08:31:00,
2013-07-25 03:46:00,59.2,56.3,30.04,NNW,337,0.0,-999.0,90,-99.99,,,0.00,Acu-Link.com,2013-07-25 08:46:00,
2013-07-25 04:02:00,59.4,57.1,30.04,South,180,0.0,-999.0,92,-99.99,,,0.00,Acu-Link.com,2013-07-25 09:02:00,
2013-07-25 04:17:00,59.5,57.2,30.04,ENE,67,0.0,-999.0,92,-99.99,,,0.00,Acu-Link.com,2013-07-25 09:17:00,
2013-07-25 04:32:00,59.4,57.1,30.04,SSE,157,0.0,-999.0,92,-99.99,,,0.00,Acu-Link.com,2013-07-25 09:32:00,
2013-07-25 04:47:00,59.2,56.9,30.05,SE,135,0.0,-999.0,92,-99.99,,,0.00,Acu-Link.com,2013-07-25 09:47:00,
2013-07-25 05:02:00,59.2,57.2,30.04,South,180,0.0,-999.0,93,-99.99,,,0.00,Acu-Link.com,2013-07-25 10:02:00,
2013-07-25 05:17:00,59.4,57.4,30.04,SE,135,0.0,-999.0,93,-99.99,,,0.00,Acu-Link.com,2013-07-25 10:17:00,
2013-07-25 05:33:00,59.5,57.5,30.04,NE,45,0.0,-999.0,93,-99.99,,,0.00,Acu-Link.com,2013-07-25 10:33:00,
2013-07-25 05:48:00,59.2,57.2,30.04,ENE,67,0.0,-999.0,93,-99.99,,,0.00,Acu-Link.com,2013-07-25 10:48:00,
2013-07-25 06:03:00,59.0,56.7,30.05,ESE,112,0.0,-999.0,92,-99.99,,,0.00,Acu-Link.com,2013-07-25 11:03:00,
2013-07-25 06:18:00,59.4,57.7,30.04,SE,135,1.1,-999.0,94,-99.99,,,0.00,Acu-Link.com,2013-07-25 11:18:00,
2013-07-25 06:34:00,59.5,57.8,30.05,ESE,112,2.2,-999.0,94,-99.99,,,0.00,Acu-Link.com,2013-07-25 11:34:00,
2013-07-25 06:49:00,60.4,58.7,30.06,NNW,337,0.0,-999.0,94,-99.99,,,0.00,Acu-Link.com,2013-07-25 11:49:00,
2013-07-25 07:04:00,61.5,58.8,30.06,ESE,112,1.7,-999.0,91,-99.99,,,0.00,Acu-Link.com,2013-07-25 12:04:00,
2013-07-25 07:19:00,63.0,59.4,30.06,SW,225,0.0,-999.0,88,-99.99,,,0.00,Acu-Link.com,2013-07-25 12:19:00,
2013-07-25 07:34:00,63.9,60.0,30.05,West,270,1.7,-999.0,87,-99.99,,,0.00,Acu-Link.com,2013-07-25 12:34:00,
2013-07-25 07:50:00,65.5,60.2,30.06,WSW,247,2.2,-999.0,83,-99.99,,,0.00,Acu-Link.com,2013-07-25 12:50:00,
2013-07-25 08:05:00,66.4,60.0,30.06,South,180,1.1,-999.0,80,-99.99,,,0.00,Acu-Link.com,2013-07-25 13:05:00,
2013-07-25 08:20:00,67.1,60.7,30.07,SE,135,2.2,-999.0,80,-99.99,,,0.00,Acu-Link.com,2013-07-25 13:20:00,
2013-07-25 08:35:00,69.1,60.8,30.06,WSW,247,1.7,-999.0,75,-99.99,,,0.00,Acu-Link.com,2013-07-25 13:35:00,
2013-07-25 08:50:00,71.4,61.5,30.06,ESE,112,1.7,-999.0,71,-99.99,,,0.00,Acu-Link.com,2013-07-25 13:50:00,
2013-07-25 09:06:00,73.9,62.7,30.06,West,270,5.8,-999.0,68,-99.99,,,0.00,Acu-Link.com,2013-07-25 14:06:00,
2013-07-25 09:21:00,75.2,62.6,30.06,WSW,247,4.7,-999.0,65,-99.99,,,0.00,Acu-Link.com,2013-07-25 14:21:00,
2013-07-25 09:36:00,76.3,62.8,30.06,NW,315,3.7,-999.0,63,-99.99,,,0.00,Acu-Link.com,2013-07-25 14:36:00,
2013-07-25 09:52:00,77.9,62.9,30.06,West,270,3.7,-999.0,60,-99.99,,,0.00,Acu-Link.com,2013-07-25 14:52:00,
2013-07-25 10:07:00,79.5,63.4,30.06,West,270,6.8,-999.0,58,-99.99,,,0.00,Acu-Link.com,2013-07-25 15:07:00,
2013-07-25 10:22:00,79.9,63.3,30.06,West,270,6.3,-999.0,57,-99.99,,,0.00,Acu-Link.com,2013-07-25 15:22:00,
2013-07-25 10:37:00,79.9,63.8,30.06,ESE,112,4.2,-999.0,58,-99.99,,,0.00,Acu-Link.com,2013-07-25 15:37:00,
2013-07-25 10:52:00,81.7,63.4,30.05,West,270,4.7,-999.0,54,-99.99,,,0.00,Acu-Link.com,2013-07-25 15:52:00,
2013-07-25 11:08:00,82.4,63.5,30.05,WSW,247,4.7,-999.0,53,-99.99,,,0.00,Acu-Link.com,2013-07-25 16:08:00,
2013-07-25 11:23:00,83.3,64.4,30.04,West,270,3.7,-999.0,53,-99.99,,,0.00,Acu-Link.com,2013-07-25 16:23:00,
2013-07-25 11:38:00,82.4,64.1,30.04,SE,135,4.2,-999.0,54,-99.99,,,0.00,Acu-Link.com,2013-07-25 16:38:00,
2013-07-25 11:53:00,84.6,63.9,30.04,SSW,202,2.7,-999.0,50,-99.99,,,0.00,Acu-Link.com,2013-07-25 16:53:00,
2013-07-25 12:08:00,84.7,62.2,30.04,West,270,7.3,-999.0,47,-99.99,,,0.00,Acu-Link.com,2013-07-25 17:08:00,
2013-07-25 12:24:00,84.0,63.3,30.04,East,90,3.7,-999.0,50,-99.99,,,0.00,Acu-Link.com,2013-07-25 17:24:00,
2013-07-25 12:39:00,84.7,64.0,30.04,SE,135,4.7,-999.0,50,-99.99,,,0.00,Acu-Link.com,2013-07-25 17:39:00,
2013-07-25 12:54:00,84.0,63.3,30.03,NNW,337,2.2,-999.0,50,-99.99,,,0.00,Acu-Link.com,2013-07-25 17:54:00,
2013-07-25 13:09:00,85.1,64.3,30.02,ESE,112,5.8,-999.0,50,-99.99,,,0.00,Acu-Link.com,2013-07-25 18:09:00,
2013-07-25 13:25:00,85.5,64.1,30.02,SW,225,4.7,-999.0,49,-99.99,,,0.00,Acu-Link.com,2013-07-25 18:25:00,
2013-07-25 13:40:00,84.6,63.9,30.02,NE,45,3.7,-999.0,50,-99.99,,,0.00,Acu-Link.com,2013-07-25 18:40:00,
2013-07-25 13:55:00,84.9,64.2,30.02,WSW,247,3.7,-999.0,50,-99.99,,,0.00,Acu-Link.com,2013-07-25 18:55:00,
2013-07-25 14:10:00,84.2,64.6,30.02,North,0,2.2,-999.0,52,-99.99,,,0.00,Acu-Link.com,2013-07-25 19:10:00,
2013-07-25 14:25:00,86.7,64.6,30.00,ESE,112,4.7,-999.0,48,-99.99,,,0.00,Acu-Link.com,2013-07-25 19:25:00,
2013-07-25 14:41:00,88.2,64.8,30.00,SSE,157,10.4,-999.0,46,-99.99,,,0.00,Acu-Link.com,2013-07-25 19:41:00,
2013-07-25 14:56:00,86.4,64.9,29.99,South,180,4.7,-999.0,49,-99.99,,,0.00,Acu-Link.com,2013-07-25 19:56:00,
2013-07-25 15:11:00,86.2,64.8,29.99,SE,135,8.9,-999.0,49,-99.99,,,0.00,Acu-Link.com,2013-07-25 20:11:00,
2013-07-25 15:26:00,87.4,64.0,29.97,SSW,202,3.7,-999.0,46,-99.99,,,0.00,Acu-Link.com,2013-07-25 20:26:00,
2013-07-25 15:41:00,85.6,64.2,29.96,South,180,5.3,-999.0,49,-99.99,,,0.00,Acu-Link.com,2013-07-25 20:41:00,
2013-07-25 15:57:00,84.4,64.8,29.96,SSW,202,9.9,-999.0,52,-99.99,,,0.00,Acu-Link.com,2013-07-25 20:57:00,
2013-07-25 16:12:00,85.5,65.8,29.96,ESE,112,5.8,-999.0,52,-99.99,,,0.00,Acu-Link.com,2013-07-25 21:12:00,
2013-07-25 16:27:00,86.4,66.1,29.96,West,270,5.8,-999.0,51,-99.99,,,0.00,Acu-Link.com,2013-07-25 21:27:00,
2013-07-25 16:42:00,84.2,65.2,29.96,SSW,202,5.8,-999.0,53,-99.99,,,0.00,Acu-Link.com,2013-07-25 21:42:00,
2013-07-25 16:58:00,84.4,65.4,29.95,ESE,112,6.8,-999.0,53,-99.99,,,0.00,Acu-Link.com,2013-07-25 21:58:00,
2013-07-25 17:13:00,85.8,65.5,29.95,South,180,6.8,-999.0,51,-99.99,,,0.00,Acu-Link.com,2013-07-25 22:13:00,
2013-07-25 17:28:00,83.8,65.4,29.95,WNW,292,5.3,-999.0,54,-99.99,,,0.00,Acu-Link.com,2013-07-25 22:28:00,
2013-07-25 17:43:00,82.9,64.5,29.95,SW,225,3.7,-999.0,54,-99.99,,,0.00,Acu-Link.com,2013-07-25 22:43:00,
2013-07-25 17:58:00,82.2,64.4,29.94,SSE,157,4.7,-999.0,55,-99.99,,,0.00,Acu-Link.com,2013-07-25 22:58:00,
2013-07-25 18:13:00,82.4,65.1,29.94,ESE,112,4.7,-999.0,56,-99.99,,,0.00,Acu-Link.com,2013-07-25 23:13:00,
2013-07-25 18:29:00,84.7,66.2,29.94,SSW,202,6.3,-999.0,54,-99.99,,,0.00,Acu-Link.com,2013-07-25 23:29:00,
2013-07-25 18:44:00,82.9,65.6,29.93,SSW,202,5.8,-999.0,56,-99.99,,,0.00,Acu-Link.com,2013-07-25 23:44:00,
2013-07-25 18:59:00,81.3,65.6,29.92,ENE,67,4.7,-999.0,59,-99.99,,,0.00,Acu-Link.com,2013-07-25 23:59:00,
2013-07-25 19:14:00,80.8,65.6,29.93,East,90,7.8,-999.0,60,-99.99,,,0.00,Acu-Link.com,2013-07-26 00:14:00,
2013-07-25 19:29:00,80.2,64.5,29.93,SW,225,7.3,-999.0,59,-99.99,,,0.00,Acu-Link.com,2013-07-26 00:29:00,
2013-07-25 19:44:00,79.7,64.1,29.94,West,270,3.7,-999.0,59,-99.99,,,0.00,Acu-Link.com,2013-07-26 00:44:00,
2013-07-25 19:59:00,79.0,63.9,29.97,SSW,202,3.7,-999.0,60,-99.99,,,0.00,Acu-Link.com,2013-07-26 00:59:00,
2013-07-25 20:15:00,78.4,64.3,29.97,ENE,67,3.2,-999.0,62,-99.99,,,0.00,Acu-Link.com,2013-07-26 01:15:00,
2013-07-25 20:30:00,77.9,64.3,29.96,SE,135,1.7,-999.0,63,-99.99,,,0.00,Acu-Link.com,2013-07-26 01:30:00,
2013-07-25 20:45:00,77.2,64.5,29.95,WSW,247,3.7,-999.0,65,-99.99,,,0.00,Acu-Link.com,2013-07-26 01:45:00,
2013-07-25 21:01:00,76.8,64.6,29.97,NW,315,1.7,-999.0,66,-99.99,,,0.00,Acu-Link.com,2013-07-26 02:01:00,
2013-07-25 21:16:00,76.5,64.7,29.96,WNW,292,2.2,-999.0,67,-99.99,,,0.00,Acu-Link.com,2013-07-26 02:16:00,
2013-07-25 22:01:00,75.4,64.1,29.97,West,270,3.2,-999.0,68,-99.99,,,0.00,Acu-Link.com,2013-07-26 03:01:00,
2013-07-25 22:17:00,75.0,64.1,29.99,West,270,3.2,-999.0,69,-99.99,,,0.00,Acu-Link.com,2013-07-26 03:17:00,
2013-07-25 22:32:00,74.5,64.5,30.01,SSW,202,1.1,-999.0,71,-99.99,,,0.00,Acu-Link.com,2013-07-26 03:32:00,
2013-07-25 22:47:00,70.3,63.1,30.01,West,270,2.7,-999.0,78,-99.99,,,0.00,Acu-Link.com,2013-07-26 03:47:00,
2013-07-25 23:03:00,68.9,62.5,30.00,East,90,1.1,-999.0,80,-99.99,,,0.00,Acu-Link.com,2013-07-26 04:03:00,
2013-07-25 23:18:00,68.4,63.0,30.00,South,180,1.1,-999.0,83,-99.99,,,0.00,Acu-Link.com,2013-07-26 04:18:00,
2013-07-25 23:33:00,68.0,63.3,30.00,West,270,1.1,-999.0,85,-99.99,,,0.00,Acu-Link.com,2013-07-26 04:33:00,
2013-07-25 23:48:00,67.8,63.1,30.00,ESE,112,0.0,-999.0,85,-99.99,,,0.00,Acu-Link.com,2013-07-26 04:48:00,